| time (UTC) | temp F | wind direction | speed knots | gust knots | rain 1hr in | rain 24hr in | rain mn in | humidity % | barometer mb |
| 20260510095147 | 63 | 217 | 0.0 | 0.0 | 0.00 | 0.00 | 0.00 | 69 | 1015.7 |
| 20260510094645 | 64 | 0 | 0.0 | 0.9 | 0.00 | 0.00 | 0.00 | 68 | 1015.5 |
| 20260510094141 | 64 | 293 | 0.0 | 0.0 | 0.00 | 0.00 | 0.00 | 68 | 1015.6 |
| 20260510093638 | 64 | 311 | 0.0 | 0.9 | 0.00 | 0.00 | 0.00 | 67 | 1015.4 |
| 20260510093135 | 64 | 325 | 0.0 | 1.7 | 0.00 | 0.00 | 0.00 | 68 | 1015.4 |
| 20260510092631 | 64 | 322 | 0.0 | 0.0 | 0.00 | 0.00 | 0.00 | 67 | 1015.4 |
| 20260510092127 | 64 | 50 | 0.0 | 0.0 | 0.00 | 0.00 | 0.00 | 65 | 1015.3 |
| 20260510091623 | 63 | 229 | 0.0 | 0.0 | 0.00 | 0.00 | 0.00 | 66 | 1015.5 |
| 20260510091119 | 63 | 269 | 0.0 | 0.0 | 0.00 | 0.00 | 0.00 | 64 | 1015.4 |
| 20260510090616 | 63 | 351 | 0.9 | 0.9 | 0.00 | 0.00 | 0.00 | 65 | 1015.5 |
| 20260510090112 | 62 | 229 | 0.0 | 0.0 | 0.00 | 0.00 | 0.00 | 66 | 1015.2 |
| 20260510085608 | 62 | 131 | 0.0 | 0.0 | 0.00 | 0.00 | 0.00 | 67 | 1015.2 |
| 20260510085103 | 62 | 39 | 0.0 | 1.7 | 0.00 | 0.00 | 0.00 | 65 | 1015.3 |
| 20260510084600 | 62 | 173 | 0.0 | 0.0 | 0.00 | 0.00 | 0.00 | 67 | 1015.4 |
| 20260510084057 | 63 | 217 | 0.0 | 0.0 | 0.00 | 0.00 | 0.00 | 68 | 1015.3 |
| 20260510083553 | 63 | 272 | 0.0 | 0.9 | 0.00 | 0.00 | 0.00 | 67 | 1015.4 |
| 20260510083049 | 63 | 293 | 0.0 | 0.9 | 0.00 | 0.00 | 0.00 | 64 | 1015.3 |
| 20260510082547 | 62 | 323 | 0.9 | 0.9 | 0.00 | 0.00 | 0.00 | 65 | 1015.3 |
| 20260510082042 | 63 | 19 | 0.0 | 1.7 | 0.00 | 0.00 | 0.00 | 64 | 1014.9 |
| 20260510081537 | 63 | 196 | 1.7 | 1.7 | 0.00 | 0.00 | 0.00 | 64 | 1015.0 |
| 20260510081033 | 63 | 349 | 0.9 | 1.7 | 0.00 | 0.00 | 0.00 | 62 | 1014.9 |
| 20260510080532 | 63 | 340 | 0.9 | 0.9 | 0.00 | 0.00 | 0.00 | 64 | 1014.7 |
| 20260510080029 | 63 | 48 | 0.0 | 0.9 | 0.00 | 0.00 | 0.00 | 64 | 1014.6 |
| 20260510075526 | 64 | 230 | 0.0 | 1.7 | 0.00 | 0.00 | 0.00 | 62 | 1014.6 |
| 20260510075023 | 64 | 135 | 0.0 | 1.7 | 0.00 | 0.00 | 0.00 | 61 | 1014.8 |
| 20260510074521 | 64 | 279 | 0.0 | 1.7 | 0.00 | 0.00 | 0.00 | 59 | 1014.9 |
| 20260510074016 | 64 | 16 | 1.7 | 1.7 | 0.00 | 0.00 | 0.00 | 61 | 1014.8 |
| 20260510073512 | 65 | 13 | 1.7 | 1.7 | 0.00 | 0.00 | 0.00 | 58 | 1015.0 |
| 20260510073010 | 64 | 19 | 0.0 | 0.0 | 0.00 | 0.00 | 0.00 | 59 | 1014.6 |
| 20260510072506 | 63 | 129 | 0.0 | 0.0 | 0.00 | 0.00 | 0.00 | 61 | 1014.6 |
| 20260510072001 | 63 | 142 | 0.0 | 0.0 | 0.00 | 0.00 | 0.00 | 60 | 1014.5 |
| 20260510071458 | 64 | 135 | 0.0 | 0.0 | 0.00 | 0.00 | 0.00 | 60 | 1014.5 |
| 20260510070956 | 64 | 5 | 0.0 | 0.0 | 0.00 | 0.00 | 0.00 | 61 | 1014.5 |
| 20260510070453 | 64 | 229 | 0.0 | 0.9 | 0.00 | 0.00 | 0.00 | 59 | 1014.4 |
| 20260510065949 | 64 | 135 | 0.0 | 0.9 | 0.00 | 0.00 | 0.00 | 58 | 1014.5 |
| 20260510065446 | 64 | 130 | 0.0 | 0.0 | 0.00 | 0.00 | 0.00 | 59 | 1014.6 |
| 20260510064942 | 64 | 212 | 0.0 | 0.0 | 0.00 | 0.00 | 0.00 | 58 | 1014.6 |
| 20260510064439 | 64 | 157 | 0.0 | 0.9 | 0.00 | 0.00 | 0.00 | 58 | 1014.6 |
| 20260510063936 | 64 | 230 | 0.0 | 0.9 | 0.00 | 0.00 | 0.00 | 58 | 1014.7 |
| 20260510063432 | 64 | 212 | 0.0 | 0.0 | 0.00 | 0.00 | 0.00 | 60 | 1014.6 |
| 20260510062930 | 64 | 147 | 0.0 | 0.9 | 0.00 | 0.00 | 0.00 | 56 | 1014.6 |
| 20260510062425 | 64 | 230 | 0.0 | 0.9 | 0.00 | 0.00 | 0.00 | 57 | 1014.7 |
| 20260510061921 | 64 | 180 | 0.0 | 0.0 | 0.00 | 0.00 | 0.00 | 58 | 1014.7 |
| 20260510061417 | 65 | 129 | 0.0 | 0.0 | 0.00 | 0.00 | 0.00 | 58 | 1014.7 |
| 20260510060913 | 65 | 217 | 0.0 | 0.9 | 0.00 | 0.00 | 0.00 | 57 | 1014.8 |
| 20260510060410 | 65 | 223 | 0.9 | 0.9 | 0.00 | 0.00 | 0.00 | 57 | 1014.7 |
| 20260510055907 | 65 | 232 | 0.0 | 0.9 | 0.00 | 0.00 | 0.00 | 58 | 1014.8 |
| 20260510055402 | 65 | 229 | 0.0 | 0.9 | 0.00 | 0.00 | 0.00 | 56 | 1014.8 |
| 20260510054900 | 65 | 269 | 0.0 | 0.0 | 0.00 | 0.00 | 0.00 | 56 | 1014.8 |
| 20260510054356 | 65 | 212 | 0.0 | 0.9 | 0.00 | 0.00 | 0.00 | 57 | 1014.8 |
| 20260510053851 | 65 | 202 | 0.0 | 0.0 | 0.00 | 0.00 | 0.00 | 56 | 1014.8 |
| 20260510053347 | 65 | 37 | 0.0 | 0.0 | 0.00 | 0.00 | 0.00 | 57 | 1014.8 |
| 20260510052843 | 66 | 37 | 0.0 | 0.0 | 0.00 | 0.00 | 0.00 | 59 | 1015.0 |
| 20260510052338 | 66 | 103 | 0.0 | 0.0 | 0.00 | 0.00 | 0.00 | 59 | 1014.8 |
| 20260510051835 | 65 | 103 | 0.0 | 0.0 | 0.00 | 0.00 | 0.00 | 55 | 1014.8 |
| 20260510051332 | 65 | 50 | 0.0 | 0.0 | 0.00 | 0.00 | 0.00 | 56 | 1014.8 |
| 20260510050830 | 65 | 217 | 0.0 | 0.0 | 0.00 | 0.00 | 0.00 | 56 | 1014.6 |
| 20260510050326 | 65 | 206 | 0.0 | 0.0 | 0.00 | 0.00 | 0.00 | 60 | 1014.6 |
| 20260510045823 | 65 | 209 | 0.0 | 0.9 | 0.00 | 0.00 | 0.00 | 61 | 1014.7 |
| 20260510045319 | 64 | 199 | 0.0 | 0.9 | 0.00 | 0.00 | 0.00 | 62 | 1014.6 |
| 20260510044816 | 64 | 213 | 0.0 | 0.0 | 0.00 | 0.00 | 0.00 | 62 | 1014.5 |
| 20260510044313 | 65 | 217 | 0.0 | 0.9 | 0.00 | 0.00 | 0.00 | 60 | 1014.5 |
| 20260510043810 | 65 | 281 | 0.0 | 0.9 | 0.00 | 0.00 | 0.00 | 60 | 1014.7 |
| 20260510043306 | 65 | 224 | 0.0 | 0.0 | 0.00 | 0.00 | 0.00 | 59 | 1014.7 |
| 20260510042803 | 65 | 256 | 0.0 | 0.0 | 0.00 | 0.00 | 0.00 | 58 | 1014.7 |
| 20260510042259 | 64 | 230 | 0.0 | 0.0 | 0.00 | 0.00 | 0.00 | 58 | 1014.7 |
| 20260510041755 | 64 | 142 | 0.0 | 0.9 | 0.00 | 0.00 | 0.00 | 59 | 1014.6 |
| 20260510041253 | 64 | 164 | 0.0 | 0.0 | 0.00 | 0.00 | 0.00 | 59 | 1014.6 |
| 20260510040750 | 65 | 256 | 0.0 | 0.0 | 0.00 | 0.00 | 0.00 | 61 | 1014.5 |
| 20260510040242 | 64 | 212 | 0.0 | 0.0 | 0.00 | 0.00 | 0.00 | 59 | 1014.6 |
| 20260510035737 | 64 | 218 | 0.0 | 0.0 | 0.00 | 0.00 | 0.00 | 59 | 1014.3 |
| 20260510035233 | 63 | 119 | 0.0 | 0.0 | 0.00 | 0.00 | 0.00 | 60 | 1014.4 |
| 20260510034729 | 62 | 145 | 0.9 | 2.6 | 0.00 | 0.00 | 0.00 | 66 | 1014.3 |
| 20260510034227 | 64 | 227 | 0.0 | 0.9 | 0.00 | 0.00 | 0.00 | 64 | 1014.0 |
| 20260510033722 | 64 | 230 | 0.0 | 0.0 | 0.00 | 0.00 | 0.00 | 61 | 1014.1 |
| 20260510033221 | 65 | 235 | 0.0 | 0.0 | 0.00 | 0.00 | 0.00 | 61 | 1014.1 |
| 20260510032717 | 65 | 269 | 0.0 | 0.0 | 0.00 | 0.00 | 0.00 | 59 | 1014.0 |
| 20260510032213 | 65 | 309 | 0.9 | 0.9 | 0.00 | 0.00 | 0.00 | 59 | 1014.0 |
| 20260510031707 | 66 | 296 | 0.9 | 0.9 | 0.00 | 0.00 | 0.00 | 58 | 1013.8 |
| 20260510031204 | 67 | 6 | 0.0 | 0.9 | 0.00 | 0.00 | 0.00 | 56 | 1013.8 |
| 20260510030658 | 67 | 269 | 0.0 | 0.0 | 0.00 | 0.00 | 0.00 | 55 | 1013.9 |
| 20260510030156 | 66 | 264 | 0.0 | 0.9 | 0.00 | 0.00 | 0.00 | 57 | 1013.8 |
| 20260510025653 | 67 | 269 | 0.0 | 0.9 | 0.00 | 0.00 | 0.00 | 57 | 1013.9 |
| 20260510025150 | 66 | 256 | 0.0 | 0.9 | 0.00 | 0.00 | 0.00 | 57 | 1013.8 |
| 20260510024648 | 66 | 229 | 0.9 | 0.9 | 0.00 | 0.00 | 0.00 | 60 | 1013.6 |
| 20260510024144 | 66 | 235 | 0.0 | 0.9 | 0.00 | 0.00 | 0.00 | 59 | 1013.6 |
| 20260510023639 | 66 | 269 | 0.0 | 0.0 | 0.00 | 0.00 | 0.00 | 58 | 1013.5 |
| 20260510023137 | 65 | 209 | 0.0 | 0.9 | 0.00 | 0.00 | 0.00 | 58 | 1013.3 |
| 20260510022637 | 65 | 309 | 0.0 | 0.0 | 0.00 | 0.00 | 0.00 | 57 | 1013.1 |
| 20260510022132 | 65 | 164 | 0.0 | 1.7 | 0.00 | 0.00 | 0.00 | 58 | 1013.1 |
| 20260510021627 | 66 | 212 | 0.0 | 0.0 | 0.00 | 0.00 | 0.00 | 56 | 1012.9 |
| 20260510021125 | 66 | 201 | 0.0 | 0.0 | 0.00 | 0.00 | 0.00 | 59 | 1012.6 |
| 20260510020619 | 66 | 256 | 0.0 | 0.0 | 0.00 | 0.00 | 0.00 | 54 | 1012.8 |
| 20260510020115 | 66 | 246 | 0.0 | 0.0 | 0.00 | 0.00 | 0.00 | 56 | 1012.5 |
| 20260510015611 | 66 | 230 | 0.0 | 0.9 | 0.00 | 0.00 | 0.00 | 56 | 1012.5 |
| 20260510015108 | 66 | 225 | 0.0 | 0.9 | 0.00 | 0.00 | 0.00 | 57 | 1012.3 |
| 20260510014603 | 65 | 212 | 0.0 | 0.0 | 0.00 | 0.00 | 0.00 | 59 | 1012.3 |
| 20260510014101 | 66 | 201 | 0.9 | 0.9 | 0.00 | 0.00 | 0.00 | 58 | 1012.3 |
| 20260510013556 | 66 | 229 | 0.0 | 0.0 | 0.00 | 0.00 | 0.00 | 59 | 1012.2 |
| 20260510013052 | 67 | 217 | 0.0 | 0.0 | 0.00 | 0.00 | 0.00 | 61 | 1012.1 |
| 20260510012551 | 68 | 217 | 0.0 | 0.0 | 0.00 | 0.00 | 0.00 | 58 | 1012.0 |
| 20260510012048 | 68 | 217 | 0.0 | 0.0 | 0.00 | 0.00 | 0.00 | 57 | 1011.9 |
| 20260510011547 | 67 | 217 | 0.0 | 0.0 | 0.00 | 0.00 | 0.00 | 57 | 1011.8 |
| 20260510011043 | 67 | 217 | 0.0 | 0.0 | 0.00 | 0.00 | 0.00 | 58 | 1011.8 |
| 20260510010540 | 68 | 217 | 0.0 | 0.0 | 0.00 | 0.00 | 0.00 | 62 | 1011.8 |
| 20260510010037 | 68 | 230 | 0.0 | 0.0 | 0.00 | 0.00 | 0.00 | 60 | 1011.8 |
| 20260510005533 | 69 | 246 | 0.0 | 0.0 | 0.00 | 0.00 | 0.00 | 57 | 1011.7 |
| 20260510005031 | 69 | 230 | 0.0 | 0.9 | 0.00 | 0.00 | 0.00 | 60 | 1011.7 |
| 20260510004528 | 70 | 233 | 0.0 | 0.9 | 0.00 | 0.00 | 0.00 | 58 | 1011.7 |
| 20260510004026 | 70 | 246 | 0.0 | 0.0 | 0.00 | 0.00 | 0.00 | 53 | 1011.6 |
| 20260510003522 | 70 | 223 | 0.9 | 0.9 | 0.00 | 0.00 | 0.00 | 58 | 1011.6 |
| 20260510003018 | 71 | 214 | 0.0 | 0.9 | 0.00 | 0.00 | 0.00 | 57 | 1011.6 |
| 20260510002513 | 72 | 246 | 0.0 | 0.9 | 0.00 | 0.00 | 0.00 | 58 | 1011.7 |
| 20260510002011 | 72 | 242 | 0.0 | 0.9 | 0.00 | 0.00 | 0.00 | 57 | 1011.7 |
| 20260510001508 | 73 | 304 | 0.0 | 0.9 | 0.00 | 0.00 | 0.00 | 53 | 1011.5 |
| 20260510001006 | 73 | 283 | 0.0 | 0.0 | 0.00 | 0.00 | 0.00 | 52 | 1011.7 |
| 20260510000501 | 73 | 242 | 0.0 | 0.0 | 0.00 | 0.00 | 0.00 | 51 | 1011.5 |
| 20260509235958 | 73 | 304 | 0.0 | 0.0 | 0.00 | 0.00 | 0.00 | 49 | 1011.7 |
| 20260509235455 | 74 | 297 | 0.0 | 0.0 | 0.00 | 0.00 | 0.00 | 49 | 1011.6 |
| 20260509234951 | 74 | 297 | 0.0 | 0.0 | 0.00 | 0.00 | 0.00 | 47 | 1011.7 |
| 20260509234448 | 75 | 295 | 0.0 | 0.9 | 0.00 | 0.00 | 0.00 | 46 | 1011.7 |
| 20260509233946 | 74 | 242 | 0.0 | 0.0 | 0.00 | 0.00 | 0.00 | 47 | 1011.6 |
| 20260509233443 | 74 | 229 | 0.0 | 0.0 | 0.00 | 0.00 | 0.00 | 48 | 1011.6 |
| 20260509232939 | 75 | 269 | 0.0 | 0.9 | 0.00 | 0.00 | 0.00 | 46 | 1011.7 |
| 20260509232437 | 77 | 255 | 0.0 | 1.7 | 0.00 | 0.00 | 0.00 | 43 | 1011.8 |
| 20260509231932 | 77 | 309 | 0.0 | 0.9 | 0.00 | 0.00 | 0.00 | 41 | 1011.7 |
| 20260509231429 | 78 | 202 | 0.0 | 1.7 | 0.00 | 0.00 | 0.00 | 40 | 1011.8 |
| 20260509230928 | 78 | 180 | 0.0 | 0.9 | 0.00 | 0.00 | 0.00 | 43 | 1011.6 |
| 20260509230424 | 78 | 167 | 0.9 | 1.7 | 0.00 | 0.00 | 0.00 | 39 | 1011.8 |
| 20260509225920 | 78 | 249 | 0.0 | 1.7 | 0.00 | 0.00 | 0.00 | 39 | 1011.6 |
| 20260509225417 | 78 | 34 | 0.0 | 1.7 | 0.00 | 0.00 | 0.00 | 39 | 1011.6 |
| 20260509224914 | 79 | 44 | 1.7 | 1.7 | 0.00 | 0.00 | 0.00 | 37 | 1011.7 |
| 20260509224413 | 80 | 343 | 0.0 | 1.7 | 0.00 | 0.00 | 0.00 | 37 | 1011.5 |
| 20260509223911 | 81 | 14 | 1.7 | 2.6 | 0.00 | 0.00 | 0.00 | 35 | 1011.7 |
| 20260509223408 | 81 | 102 | 0.0 | 1.7 | 0.00 | 0.00 | 0.00 | 35 | 1011.8 |
| 20260509222905 | 83 | 339 | 0.9 | 1.7 | 0.00 | 0.00 | 0.00 | 33 | 1011.6 |
| 20260509222400 | 82 | 322 | 0.0 | 1.7 | 0.00 | 0.00 | 0.00 | 33 | 1011.6 |
| 20260509221855 | 82 | 255 | 0.0 | 1.7 | 0.00 | 0.00 | 0.00 | 33 | 1011.5 |
| 20260509221353 | 82 | 317 | 0.0 | 2.6 | 0.00 | 0.00 | 0.00 | 32 | 1011.6 |
| 20260509220849 | 84 | 359 | 1.7 | 1.7 | 0.00 | 0.00 | 0.00 | 31 | 1011.5 |
| 20260509220345 | 83 | 212 | 0.0 | 1.7 | 0.00 | 0.00 | 0.00 | 33 | 1011.8 |
| 20260509215840 | 81 | 213 | 1.7 | 1.7 | 0.00 | 0.00 | 0.00 | 32 | 1011.7 |
| 20260509215337 | 81 | 313 | 2.6 | 2.6 | 0.00 | 0.00 | 0.00 | 33 | 1011.7 |
| 20260509214834 | 82 | 245 | 0.9 | 3.5 | 0.00 | 0.00 | 0.00 | 32 | 1011.8 |
| 20260509214331 | 82 | 334 | 1.7 | 2.6 | 0.00 | 0.00 | 0.00 | 31 | 1011.7 |
| 20260509213829 | 82 | 37 | 0.9 | 2.6 | 0.00 | 0.00 | 0.00 | 31 | 1011.8 |
| 20260509213324 | 82 | 184 | 0.9 | 3.5 | 0.00 | 0.00 | 0.00 | 34 | 1011.8 |
| 20260509212821 | 82 | 184 | 1.7 | 2.6 | 0.00 | 0.00 | 0.00 | 33 | 1011.9 |
| 20260509212319 | 81 | 214 | 0.0 | 2.6 | 0.00 | 0.00 | 0.00 | 32 | 1012.0 |
| 20260509211814 | 81 | 138 | 4.3 | 7.0 | 0.00 | 0.00 | 0.00 | 31 | 1011.9 |
| 20260509211311 | 82 | 142 | 2.6 | 2.6 | 0.00 | 0.00 | 0.00 | 36 | 1011.8 |
| 20260509210808 | 82 | 338 | 2.6 | 2.6 | 0.00 | 0.00 | 0.00 | 31 | 1011.9 |
| 20260509210305 | 83 | 102 | 0.0 | 3.5 | 0.00 | 0.00 | 0.00 | 32 | 1012.0 |
| 20260509205804 | 82 | 24 | 2.6 | 4.3 | 0.00 | 0.00 | 0.00 | 29 | 1012.1 |
| 20260509205300 | 82 | 200 | 0.9 | 2.6 | 0.00 | 0.00 | 0.00 | 31 | 1011.9 |
| 20260509204756 | 82 | 277 | 1.7 | 5.2 | 0.00 | 0.00 | 0.00 | 31 | 1012.0 |
| 20260509204252 | 82 | 0 | 0.9 | 3.5 | 0.00 | 0.00 | 0.00 | 35 | 1012.0 |
| 20260509203748 | 81 | 263 | 0.0 | 2.6 | 0.00 | 0.00 | 0.00 | 30 | 1011.9 |
| 20260509203246 | 81 | 272 | 1.7 | 3.5 | 0.00 | 0.00 | 0.00 | 32 | 1012.1 |
| 20260509202742 | 80 | 302 | 1.7 | 1.7 | 0.00 | 0.00 | 0.00 | 37 | 1012.1 |
| 20260509202238 | 78 | 316 | 0.9 | 3.5 | 0.00 | 0.00 | 0.00 | 36 | 1012.2 |
| 20260509201732 | 80 | 298 | 1.7 | 1.7 | 0.00 | 0.00 | 0.00 | 34 | 1012.3 |
| 20260509201229 | 80 | 172 | 0.9 | 2.6 | 0.00 | 0.00 | 0.00 | 36 | 1012.4 |
| 20260509200726 | 81 | 151 | 1.7 | 3.5 | 0.00 | 0.00 | 0.00 | 29 | 1012.4 |
| 20260509200221 | 83 | 307 | 1.7 | 2.6 | 0.00 | 0.00 | 0.00 | 33 | 1012.4 |
| 20260509195717 | 81 | 233 | 1.7 | 6.1 | 0.00 | 0.00 | 0.00 | 36 | 1012.4 |
| 20260509195213 | 82 | 301 | 1.7 | 3.5 | 0.00 | 0.00 | 0.00 | 34 | 1012.4 |
| 20260509194712 | 82 | 242 | 0.0 | 3.5 | 0.00 | 0.00 | 0.00 | 37 | 1012.5 |
| 20260509194209 | 82 | 349 | 1.7 | 3.5 | 0.00 | 0.00 | 0.00 | 32 | 1012.6 |
| 20260509193706 | 82 | 272 | 0.9 | 3.5 | 0.00 | 0.00 | 0.00 | 35 | 1012.6 |
| 20260509193206 | 82 | 191 | 0.9 | 2.6 | 0.00 | 0.00 | 0.00 | 35 | 1012.8 |
| 20260509192703 | 82 | 271 | 1.7 | 2.6 | 0.00 | 0.00 | 0.00 | 34 | 1012.8 |
| 20260509192158 | 81 | 36 | 0.9 | 6.1 | 0.00 | 0.00 | 0.00 | 34 | 1012.8 |
| 20260509191653 | 80 | 220 | 2.6 | 4.3 | 0.00 | 0.00 | 0.00 | 31 | 1012.6 |
| 20260509191150 | 82 | 126 | 0.0 | 3.5 | 0.00 | 0.00 | 0.00 | 30 | 1012.8 |
| 20260509190646 | 82 | 208 | 0.9 | 3.5 | 0.00 | 0.00 | 0.00 | 34 | 1012.6 |
| 20260509190143 | 81 | 348 | 0.9 | 3.5 | 0.00 | 0.00 | 0.00 | 31 | 1012.9 |
| 20260509185641 | 81 | 314 | 0.0 | 3.5 | 0.00 | 0.00 | 0.00 | 30 | 1013.0 |
| 20260509185137 | 82 | 5 | 1.7 | 4.3 | 0.00 | 0.00 | 0.00 | 30 | 1013.0 |
| 20260509184635 | 80 | 188 | 0.9 | 4.3 | 0.00 | 0.00 | 0.00 | 31 | 1012.8 |
| 20260509184131 | 82 | 233 | 2.6 | 3.5 | 0.00 | 0.00 | 0.00 | 33 | 1013.0 |
| 20260509183628 | 81 | 255 | 2.6 | 2.6 | 0.00 | 0.00 | 0.00 | 27 | 1012.9 |
| 20260509183123 | 81 | 150 | 0.0 | 4.3 | 0.00 | 0.00 | 0.00 | 30 | 1012.8 |
| 20260509182619 | 81 | 154 | 0.9 | 2.6 | 0.00 | 0.00 | 0.00 | 33 | 1012.8 |
| 20260509182117 | 81 | 158 | 1.7 | 3.5 | 0.00 | 0.00 | 0.00 | 29 | 1012.5 |
| 20260509181615 | 81 | 169 | 0.9 | 3.5 | 0.00 | 0.00 | 0.00 | 31 | 1012.8 |
| 20260509181112 | 81 | 275 | 0.9 | 4.3 | 0.00 | 0.00 | 0.00 | 31 | 1012.8 |
| 20260509180608 | 80 | 332 | 1.7 | 3.5 | 0.00 | 0.00 | 0.00 | 30 | 1012.8 |
| 20260509180105 | 79 | 215 | 2.6 | 3.5 | 0.00 | 0.00 | 0.00 | 31 | 1012.6 |
| 20260509175600 | 80 | 50 | 2.6 | 3.5 | 0.00 | 0.00 | 0.00 | 32 | 1013.0 |
| 20260509175058 | 80 | 126 | 2.6 | 4.3 | 0.00 | 0.00 | 0.00 | 34 | 1013.0 |
| 20260509174554 | 81 | 305 | 1.7 | 2.6 | 0.00 | 0.00 | 0.00 | 28 | 1012.9 |
| 20260509174049 | 81 | 337 | 1.7 | 1.7 | 0.00 | 0.00 | 0.00 | 30 | 1012.8 |
| 20260509173549 | 80 | 238 | 0.9 | 1.7 | 0.00 | 0.00 | 0.00 | 35 | 1013.0 |
| 20260509173046 | 80 | 84 | 0.9 | 2.6 | 0.00 | 0.00 | 0.00 | 31 | 1012.9 |
| 20260509172543 | 80 | 191 | 2.6 | 3.5 | 0.00 | 0.00 | 0.00 | 35 | 1013.0 |
| 20260509172039 | 79 | 80 | 0.0 | 3.5 | 0.00 | 0.00 | 0.00 | 34 | 1013.1 |
| 20260509171535 | 80 | 50 | 0.9 | 3.5 | 0.00 | 0.00 | 0.00 | 35 | 1013.0 |
| 20260509171032 | 79 | 141 | 0.0 | 2.6 | 0.00 | 0.00 | 0.00 | 39 | 1013.1 |
| 20260509170527 | 79 | 343 | 2.6 | 2.6 | 0.00 | 0.00 | 0.00 | 36 | 1013.1 |
| 20260509170023 | 80 | 277 | 1.7 | 3.5 | 0.00 | 0.00 | 0.00 | 35 | 1013.2 |
| 20260509165522 | 79 | 98 | 0.9 | 4.3 | 0.00 | 0.00 | 0.00 | 33 | 1013.0 |
| 20260509165018 | 79 | 51 | 1.7 | 2.6 | 0.00 | 0.00 | 0.00 | 39 | 1013.2 |
| 20260509164514 | 80 | 39 | 1.7 | 2.6 | 0.00 | 0.00 | 0.00 | 43 | 1013.1 |
| 20260509164009 | 78 | 6 | 0.9 | 3.5 | 0.00 | 0.00 | 0.00 | 41 | 1013.1 |
| 20260509163508 | 78 | 177 | 1.7 | 3.5 | 0.00 | 0.00 | 0.00 | 43 | 1013.2 |
| 20260509163002 | 78 | 338 | 0.0 | 3.5 | 0.00 | 0.00 | 0.00 | 42 | 1013.1 |
| 20260509162500 | 79 | 177 | 3.5 | 4.3 | 0.00 | 0.00 | 0.00 | 43 | 1013.1 |
| 20260509161956 | 78 | 23 | 2.6 | 2.6 | 0.00 | 0.00 | 0.00 | 42 | 1013.1 |
| 20260509161453 | 77 | 322 | 1.7 | 4.3 | 0.00 | 0.00 | 0.00 | 45 | 1013.1 |
| 20260509160947 | 77 | 13 | 0.9 | 4.3 | 0.00 | 0.00 | 0.00 | 46 | 1012.9 |
| 20260509160444 | 78 | 149 | 1.7 | 4.3 | 0.00 | 0.00 | 0.00 | 44 | 1013.1 |
| 20260509155939 | 78 | 19 | 0.9 | 1.7 | 0.00 | 0.00 | 0.00 | 45 | 1013.1 |
| 20260509155436 | 77 | 194 | 1.7 | 2.6 | 0.00 | 0.00 | 0.00 | 45 | 1012.9 |
| 20260509154932 | 77 | 200 | 1.7 | 3.5 | 0.00 | 0.00 | 0.00 | 47 | 1013.0 |
| 20260509154428 | 77 | 166 | 0.0 | 1.7 | 0.00 | 0.00 | 0.00 | 49 | 1012.9 |
| 20260509153926 | 76 | 43 | 0.9 | 3.5 | 0.00 | 0.00 | 0.00 | 48 | 1012.9 |
| 20260509153423 | 75 | 165 | 2.6 | 2.6 | 0.00 | 0.00 | 0.00 | 52 | 1012.8 |
| 20260509152920 | 75 | 57 | 0.0 | 2.6 | 0.00 | 0.00 | 0.00 | 52 | 1012.9 |
| 20260509152415 | 74 | 40 | 1.7 | 2.6 | 0.00 | 0.00 | 0.00 | 53 | 1012.8 |
| 20260509151913 | 73 | 24 | 3.5 | 3.5 | 0.00 | 0.00 | 0.00 | 59 | 1012.9 |
| 20260509151408 | 73 | 47 | 1.7 | 2.6 | 0.00 | 0.00 | 0.00 | 57 | 1013.0 |
| 20260509150907 | 73 | 343 | 1.7 | 4.3 | 0.00 | 0.00 | 0.00 | 60 | 1013.2 |
| 20260509150404 | 73 | 165 | 0.9 | 1.7 | 0.00 | 0.00 | 0.00 | 62 | 1013.0 |
| 20260509145903 | 73 | 326 | 0.0 | 2.6 | 0.00 | 0.00 | 0.00 | 60 | 1012.9 |
| 20260509145402 | 71 | 326 | 2.6 | 4.3 | 0.00 | 0.00 | 0.00 | 63 | 1013.0 |
| 20260509144858 | 72 | 24 | 1.7 | 1.7 | 0.00 | 0.00 | 0.00 | 62 | 1013.0 |
| 20260509144355 | 71 | 142 | 0.0 | 4.3 | 0.00 | 0.00 | 0.00 | 63 | 1013.0 |
| 20260509143852 | 71 | 121 | 0.0 | 2.6 | 0.00 | 0.00 | 0.00 | 68 | 1013.1 |
| 20260509143349 | 70 | 157 | 3.5 | 3.5 | 0.00 | 0.00 | 0.00 | 70 | 1013.1 |
| 20260509142846 | 69 | 6 | 1.7 | 3.5 | 0.00 | 0.00 | 0.00 | 70 | 1013.0 |
| 20260509142342 | 69 | 69 | 2.6 | 2.6 | 0.00 | 0.00 | 0.00 | 70 | 1012.9 |
| 20260509141838 | 68 | 197 | 0.9 | 1.7 | 0.00 | 0.00 | 0.00 | 72 | 1012.9 |
| 20260509141335 | 68 | 185 | 1.7 | 1.7 | 0.00 | 0.00 | 0.00 | 72 | 1012.8 |
| 20260509140831 | 67 | 190 | 0.9 | 2.6 | 0.00 | 0.00 | 0.00 | 77 | 1012.8 |
| 20260509140328 | 67 | 160 | 0.0 | 2.6 | 0.00 | 0.00 | 0.00 | 75 | 1012.9 |
| 20260509135827 | 66 | 199 | 0.9 | 2.6 | 0.00 | 0.00 | 0.00 | 79 | 1012.5 |
| 20260509135324 | 65 | 132 | 4.3 | 4.3 | 0.00 | 0.00 | 0.00 | 79 | 1012.5 |
| 20260509134821 | 65 | 173 | 2.6 | 3.5 | 0.00 | 0.00 | 0.00 | 79 | 1012.5 |
| 20260509134318 | 66 | 134 | 1.7 | 2.6 | 0.00 | 0.00 | 0.00 | 79 | 1012.3 |
| 20260509133815 | 65 | 164 | 0.9 | 2.6 | 0.00 | 0.00 | 0.00 | 81 | 1012.4 |
| 20260509133311 | 64 | 92 | 0.9 | 1.7 | 0.00 | 0.00 | 0.00 | 80 | 1012.3 |
| 20260509132810 | 64 | 345 | 0.9 | 2.6 | 0.00 | 0.00 | 0.00 | 80 | 1012.0 |
| 20260509132309 | 63 | 38 | 1.7 | 3.5 | 0.00 | 0.00 | 0.00 | 82 | 1012.0 |
| 20260509131805 | 62 | 50 | 1.7 | 3.5 | 0.00 | 0.00 | 0.00 | 84 | 1012.1 |
| 20260509131301 | 62 | 339 | 0.0 | 1.7 | 0.00 | 0.00 | 0.00 | 84 | 1012.1 |
| 20260509130758 | 62 | 352 | 0.9 | 1.7 | 0.00 | 0.00 | 0.00 | 85 | 1012.2 |
| 20260509130254 | 61 | 16 | 0.9 | 1.7 | 0.00 | 0.00 | 0.00 | 85 | 1012.0 |
| 20260509125750 | 61 | 158 | 0.0 | 1.7 | 0.00 | 0.00 | 0.00 | 86 | 1012.2 |
| 20260509125247 | 60 | 263 | 0.9 | 4.3 | 0.00 | 0.00 | 0.00 | 87 | 1012.1 |
| 20260509124744 | 60 | 97 | 1.7 | 1.7 | 0.00 | 0.00 | 0.00 | 88 | 1012.0 |
| 20260509124240 | 59 | 234 | 0.0 | 1.7 | 0.00 | 0.00 | 0.00 | 87 | 1012.2 |
| 20260509123738 | 59 | 29 | 0.0 | 1.7 | 0.00 | 0.00 | 0.00 | 88 | 1011.9 |
| 20260509123235 | 59 | 64 | 1.7 | 1.7 | 0.00 | 0.00 | 0.00 | 89 | 1012.0 |
| 20260509122731 | 58 | 248 | 0.0 | 0.9 | 0.00 | 0.00 | 0.00 | 90 | 1012.0 |
| 20260509122228 | 58 | 194 | 0.0 | 1.7 | 0.00 | 0.00 | 0.00 | 90 | 1011.8 |
| 20260509121725 | 57 | 89 | 0.0 | 1.7 | 0.00 | 0.00 | 0.00 | 90 | 1011.9 |
| 20260509121222 | 57 | 103 | 0.0 | 0.9 | 0.00 | 0.00 | 0.00 | 91 | 1012.0 |
| 20260509120721 | 57 | 147 | 0.0 | 1.7 | 0.00 | 0.00 | 0.00 | 91 | 1012.0 |
| 20260509120218 | 56 | 129 | 0.0 | 1.7 | 0.00 | 0.00 | 0.00 | 91 | 1012.0 |
| 20260509115715 | 56 | 197 | 0.0 | 1.7 | 0.00 | 0.00 | 0.00 | 91 | 1011.9 |
| 20260509115213 | 56 | 236 | 1.7 | 1.7 | 0.00 | 0.00 | 0.00 | 92 | 1011.8 |
| 20260509114711 | 56 | 293 | 0.0 | 1.7 | 0.00 | 0.00 | 0.00 | 92 | 1012.1 |
| 20260509114209 | 56 | 183 | 0.0 | 1.7 | 0.02 | 0.00 | 0.00 | 92 | 1011.7 |
| 20260509113708 | 55 | 166 | 0.0 | 1.7 | 0.02 | 0.00 | 0.00 | 93 | 1011.6 |
| 20260509113204 | 55 | 147 | 0.0 | 2.6 | 0.00 | 0.00 | 0.00 | 93 | 1011.7 |
| 20260509112701 | 55 | 66 | 0.0 | 1.7 | 0.00 | 0.00 | 0.00 | 93 | 1011.6 |
| 20260509112158 | 55 | 205 | 0.0 | 1.7 | 0.00 | 0.00 | 0.00 | 93 | 1011.5 |
| 20260509111655 | 55 | 150 | 1.7 | 1.7 | 0.00 | 0.00 | 0.00 | 93 | 1011.4 |
| 20260509111152 | 55 | 132 | 1.7 | 1.7 | 0.00 | 0.00 | 0.00 | 93 | 1011.4 |
| 20260509110649 | 55 | 152 | 0.9 | 1.7 | 0.00 | 0.00 | 0.00 | 93 | 1011.3 |
| 20260509110146 | 55 | 159 | 0.0 | 1.7 | 0.00 | 0.00 | 0.00 | 93 | 1011.4 |
| 20260509105644 | 55 | 156 | 0.0 | 0.9 | 0.00 | 0.00 | 0.00 | 93 | 1011.2 |
| 20260509105141 | 55 | 71 | 0.9 | 2.6 | 0.00 | 0.00 | 0.00 | 92 | 1011.3 |
| 20260509104638 | 55 | 13 | 0.0 | 0.9 | 0.00 | 0.00 | 0.00 | 92 | 1011.4 |
| 20260509104135 | 55 | 193 | 0.0 | 0.9 | 0.00 | 0.00 | 0.00 | 92 | 1011.3 |
| 20260509103633 | 55 | 150 | 0.0 | 0.9 | 0.00 | 0.00 | 0.00 | 92 | 1011.2 |
| 20260509103131 | 55 | 286 | 0.0 | 1.7 | 0.00 | 0.00 | 0.00 | 93 | 1011.1 |
| 20260509102628 | 55 | 88 | 0.0 | 1.7 | 0.00 | 0.00 | 0.00 | 93 | 1011.3 |
| 20260509102125 | 55 | 145 | 0.0 | 0.9 | 0.00 | 0.00 | 0.00 | 93 | 1011.3 |
| 20260509101621 | 54 | 157 | 0.0 | 1.7 | 0.00 | 0.00 | 0.00 | 93 | 1011.4 |
| 20260509101118 | 54 | 331 | 0.0 | 0.0 | 0.00 | 0.00 | 0.00 | 93 | 1011.4 |
| 20260509100615 | 54 | 252 | 0.0 | 0.9 | 0.00 | 0.00 | 0.00 | 93 | 1011.3 |
| 20260509100112 | 54 | 73 | 0.9 | 0.9 | 0.00 | 0.00 | 0.00 | 92 | 1011.3 |
| 20260509095608 | 54 | 127 | 0.9 | 1.7 | 0.00 | 0.00 | 0.00 | 92 | 1011.3 |